Regional Weather Roundup
Issued by NWS Cleveland, OH

Home | Current Version | Previous Version | Text Only | Print | Product List | Glossary Off
Versions: 1 2 3 4 5 6 7 8 9 10 11 12 13 14 15 16 17 18 19 20 21 22 23 24 25 26 27 28 29 30 31 32 33 34 35 36 37 38 39 40 41 42 43 44 45 46 47 48 49 50

000
ASUS41 KCLE 281302
RWRCLE
OHIO REGIONAL WEATHER ROUNDUP
NATIONAL WEATHER SERVICE CLEVELAND, OH
900 AM EDT THU MAY 28 2015

NOTE: "FAIR" INDICATES FEW OR NO CLOUDS BELOW 12,000 FEET WITH NO
SIGNIFICANT WEATHER AND/OR OBSTRUCTIONS TO VISIBILITY.

OHZ001>008-015>018-024>027-034-035-043-044-281400-
   NORTHWEST OHIO

CITY           SKY/WX    TMP DP  RH WIND       PRES   REMARKS
DEFIANCE       SUNNY     66  59  78 E7        30.23S
FINDLAY        SUNNY     67  59  75 E10       30.23R
TOLEDO EXPRESS SUNNY     65  58  78 E3        30.23R
TOLEDO EXEC    SUNNY     67  58  72 E6        30.24R
LIMA           SUNNY     67  60  78 E10       30.23S
$$

OHZ009>014-019>023-028>033-038-089-281400-
   NORTHEAST OHIO

CITY           SKY/WX    TMP DP  RH WIND       PRES   REMARKS
CLE-HOPKINS    MOSUNNY   67  54  63 NE6       30.26R
CLE-LAKEFRONT  SUNNY     65  57  75 N7        30.24R
CUY CO. ARPT   MOSUNNY   66  57  72 NE7       30.25R
LORAIN-ELYRIA  SUNNY     65  56  72 E6        30.25R
ASHTABULA      MOSUNNY   63  54  72 VRB3      30.26R
AKRON-CANTON   PTSUNNY   67  59  75 NE7       30.25R
WOOSTER        MOSUNNY   66  60  81 NE8       30.26R
MANSFIELD      MOSUNNY   65  61  87 NE7       30.25R
YOUNGSTOWN     PTSUNNY   65  56  72 NE8       30.25R
$$

OHZ042-051>053-060>062-070>072-077>081-281400-
  SOUTHWEST OHIO

CITY           SKY/WX    TMP DP  RH WIND       PRES   REMARKS
CINC-COVINGTON FOG       64  63  94 CALM      30.22R VSB 1/2
CINC-LUNKEN    CLOUDY    66  64  93 SE3       30.22R
HAMILTON       CLOUDY    67  64  90 CALM      30.22R
DAYTON         PTSUNNY   67  64  90 NE6       30.22S FOG
WRIGHT-PAT AFB PTSUNNY   67  64  91 NE2       30.22R
DAYTON GENERAL CLOUDY    67  63  87 CALM      30.21S
WILMINGTON     CLOUDY    68  62  81 CALM      30.21S
$$

OHZ036-037-039>041-045>050-054>059-063>069-073>076-082>088-281400-
  CENTRAL AND SOUTHEAST OHIO

CITY           SKY/WX    TMP DP  RH WIND       PRES   REMARKS
COLUMBUS       CLOUDY    67  62  84 SE3       30.22R
OSU AIRPORT    PTSUNNY   68  63  84 E5        30.23R
BOLTON FIELD   MOSUNNY   68  63  83 CALM      30.23R
RICKENBACK AFB NOT AVBL
NEWARK         CLOUDY    68  63  84 CALM      30.23S
MARION         MOSUNNY   68  61  78 E9        30.24R
LANCASTER      CLOUDY    68  62  81 CALM      30.24R
ZANESVILLE     NOT AVBL
NEW PHILLY     CLOUDY    69  62  78 NE6       30.25S
$$


USA.gov is the U.S. government's official web portal to all federal, state and local government web resources and services.